User: anonymous   Login
Location: Unspecified
(0.0000°N, 0.0000°E)
Time: 04:36:05
(UTC+00:00)
Language:

STARLINK-35748 - Orbit

View from above orbital plane
View from above orbital plane
View from above satellite
View from above satellite

Ground track
Ground track

The orbit is defined by the following mean orbital elements,

1 66206U          26145.64117867 +.00000000 +00000-0 +10310-2 0 00008
2 66206  53.1597 232.3063 0001025  85.6443 274.4677 15.34426146    02
Epoch (UTC): 25 May 2026 15:23:17
Eccentricity: 0.0001025
inclination: 53.1597°
perigee height: 462 km
apogee height: 463 km
right ascension of ascending node: 232.3063°
argument of perigee: 85.6443°
revolutions per day: 15.34426146
mean anomaly at epoch: 274.4677°

The dashed part of the orbit path shows where the satellite is in the earth's shadow,  

DLR